Location: Trinity Bay
(48.9833°N, 53.9167°W)
Time: 18:51:34
(UTC+00:00)

Daily predictions for brighter satellites

Satellite Brightness Start Highest point End
(mag) Time Altitude Azimuth Time Altitude Azimuth Time Altitude Azimuth
Cosmos 1464 Rocket 4.4 20:05:37 10° SSW 20:11:45 69° W 20:17:55 10° N
GEOS 3 Rocket 3.8 20:17:47 10° NE 20:23:10 71° SE 20:28:32 10° SSW
Cosmos 292 Rocket 3.9 20:19:03 10° SSW 20:23:51 81° WNW 20:28:41 10° NNE
Cosmos 2208 Rocket 4.4 20:20:12 10° N 20:25:02 38° ENE 20:29:51 10° SE
ARIANE 5 R/B 2.9 20:20:43 10° SE 20:25:23 40° ENE 20:30:10 10° N
Cosmos 2279 Rocket 4.3 20:20:56 10° SSE 20:26:44 44° E 20:32:34 10° NNE
Cosmos 1092 Rocket 4.0 20:20:46 10° N 20:26:59 84° E 20:33:07 10° S
CENTAUR R/B 2.5 20:22:16 10° SW 20:27:51 88° ESE 20:35:01 10° NE
Lacrosse 4 Rocket 1.3 20:24:04 10° SSW 20:28:10 89° NW 20:32:13 10° NNE
Cosmos 1455 Rocket 3.2 20:24:46 10° SSW 20:29:04 81° W 20:33:28 10° N
CZ-4C R/B 3.2 20:28:22 10° NW 20:34:30 43° NE 20:42:12 10° ESE
IRS-1C 4.3 20:30:51 10° SE 20:35:57 50° ENE 20:41:05 10° N
BREEZE M DEB (TANK) 4.0 20:36:46 10° SSW 20:38:31 15° SSE 20:39:56 10° ESE
NOSS 2-2 (D) 3.9 20:36:11 10° S 20:39:12 29° SE 20:41:14 15° ENE
IGS 5A 3.4 20:37:17 10° S 20:41:14 81° WSW 20:45:14 10° NNW
USA 290 3.4 20:39:28 10° N 20:42:07 22° ENE 20:44:45 10° ESE
USA 215 3.8 20:36:14 11° ENE 20:42:15 45° N 20:48:24 10° WNW
BlueWalker 3 1.7 20:41:37 10° WNW 20:45:15 78° NNE 20:48:53 10° ESE
CBERS-1 4.4 20:40:21 10° S 20:45:26 70° WSW 20:50:34 10° NNW
YAOGAN 1 3.9 20:42:42 10° ESE 20:45:37 18° ENE 20:48:33 10° NNE
Cosmos 2084 3.7 20:41:30 10° SW 20:45:40 62° NW 20:49:29 12° NE
Meteor 1-27 4.3 20:39:53 10° S 20:45:43 87° E 20:51:32 10° NNE
NOSS 2-2 (E) 4.0 20:43:06 10° S 20:46:03 27° SE 20:47:44 17° ENE
Cosmos 2084 Rocket 4.4 20:44:48 10° NNW 20:48:29 28° NNE 20:51:10 15° E
CZ-2D R/B 3.0 20:45:52 10° SE 20:48:52 44° ENE 20:51:54 10° N
Cosmos 2297 Rocket 2.4 20:43:33 10° NNW 20:49:04 49° NE 20:54:33 10° SE
Cosmos 1484 Rocket 3.8 20:46:29 10° S 20:49:51 44° W 20:53:16 10° NNW
Thor Agena Rocket 3.7 20:48:38 10° SSE 20:53:51 79° WSW 20:59:04 10° NNW
Cosmos 1656 3.9 20:51:02 10° S 20:56:26 52° ESE 21:01:30 12° NE
SL-16 R/B 2.9 20:51:47 10° NNE 20:57:59 68° WNW 21:04:08 10° SSW
Cosmos 1743 2.5 20:56:13 10° N 20:59:24 46° ENE 21:02:32 10° SSE
Cosmos 724 4.4 20:54:12 10° NNW 21:00:12 57° NE 21:06:02 10° SE
Cosmos 1733 1.2 20:59:38 10° N 21:01:36 71° E 21:03:32 10° SSE
Cosmos 2266 Rocket 4.1 20:56:10 10° N 21:02:13 52° ENE 21:08:07 10° SSE
Cosmos 1315 Rocket 3.5 20:58:59 10° SSW 21:02:43 52° WNW 21:06:29 10° N
SAR-Lupe-4 3.4 20:59:22 10° SSE 21:02:55 77° ENE 21:06:30 10° NNW
Meteor 1-28 Rocket 3.8 21:00:08 10° N 21:03:23 48° WNW 21:06:37 10° SSW
Cosmos 1825 Rocket 4.3 21:00:30 10° N 21:04:18 28° ENE 21:08:02 10° SE
Cosmos 1758 Rocket 3.4 21:00:52 10° N 21:05:13 84° E 21:09:30 10° S
ATLAS CENTAUR R/B 0.7 21:05:09 10° NNW 21:08:24 58° NE 21:10:44 16° SE
Cosmos 2098 Rocket 2.9 21:04:39 10° S 21:08:25 63° E 21:12:56 10° NNE
SAR-Lupe-1 3.9 21:05:52 10° SSE 21:09:27 80° ENE 21:13:04 10° NNW
Cosmos 1356 Rocket 4.3 21:05:35 10° SSW 21:09:30 48° WNW 21:13:29 10° N
Lacrosse 5 rocket 1.4 21:05:54 10° WSW 21:09:36 59° NNW 21:11:38 24° NE
Cosmos 1607 3.9 21:03:26 10° NW 21:09:38 64° NE 21:15:51 10° SE
IRIDIUM 104 4.3 21:06:31 10° N 21:11:44 63° E 21:16:54 10° SSE
Cosmos 2228 3.7 21:07:40 10° SSW 21:11:49 55° WNW 21:16:01 10° N
SJ-6F 4.2 21:08:54 10° SSE 21:12:49 65° ENE 21:16:48 10° N
SMAP 3.5 21:08:18 10° S 21:12:56 65° WSW 21:17:35 10° NNW
AQUARIUS 4.0 21:08:35 10° SSE 21:12:59 76° ENE 21:17:24 10° N
Cosmos 1980 Rocket 4.1 21:15:30 10° ESE 21:16:05 11° ESE 21:16:05 11° ESE
NOSS 3-2 (C) 3.6 21:13:42 10° S 21:18:18 38° ESE 21:20:52 25° ENE
SJ-12 3.8 21:14:45 10° S 21:18:31 79° WSW 21:22:20 10° NNW
Cosmos 1782 2.5 21:15:00 10° SSW 21:18:36 81° W 21:22:14 10° N
Landsat 7 4.0 21:14:42 10° S 21:19:21 74° WSW 21:24:02 10° NNW
NOSS 3-2 (A) 3.1 21:15:26 10° SW 21:20:29 89° SE 21:24:44 20° NE
IRIDIUM 114 4.2 21:15:38 10° N 21:20:53 76° E 21:26:06 10° S
Spot 4 Rocket 4.2 21:17:23 10° SE 21:22:13 45° ENE 21:27:05 10° N
Cosmos 1933 3.7 21:20:15 10° SSE 21:23:48 37° E 21:24:19 35° ENE
IRS-P3 4.1 21:20:49 10° SSE 21:26:08 89° E 21:31:31 10° NNW
NOSS 2-2 (C) 3.7 21:26:10 10° WSW 21:29:11 39° NW 21:30:16 28° N
IRIDIUM 103 4.3 21:24:48 10° N 21:30:04 89° E 21:35:17 10° S
BREEZE M DEB (TANK) 3.9 21:18:32 10° WNW 21:30:21 60° SSW 21:33:19 16° SE
UNK 4.4 21:26:55 10° N 21:31:24 53° WNW 21:35:50 10° SW
Cosmos 2263 Rocket 2.9 21:27:07 10° NNW 21:32:10 31° NE 21:33:06 30° ENE
Cosmos 1867 3.7 21:26:53 10° NNW 21:32:16 55° NE 21:35:19 25° ESE
Cosmos 2360 4.1 21:27:04 10° SSW 21:32:45 72° ESE 21:36:34 22° NE
Cosmos 1777 Rocket 3.9 21:29:53 10° S 21:35:05 66° ESE 21:38:13 24° NNE
Cosmos 1606 Rocket 3.6 21:34:34 10° S 21:38:51 53° E 21:40:25 35° NE
Cosmos 2227 Rocket 2.3 21:34:23 10° NNW 21:39:56 53° NE 21:43:20 23° SE
MOS 1 Rocket 3.8 21:36:45 10° S 21:41:30 67° W 21:46:35 10° NNW
Okean 1-7 Rocket 3.4 21:38:12 10° N 21:42:38 88° E 21:47:00 10° S
Resurs 1-3 3.5 21:41:02 10° SSE 21:45:15 61° ENE 21:49:31 10° N
Cosmos 2369 Rocket 4.4 21:41:47 10° WNW 21:45:24 17° NW 21:49:03 10° N
IRAS Rocket 4.1 21:42:39 10° SSE 21:48:04 65° ENE 21:53:30 10° NNW
Cosmos 1486 Rocket 4.0 21:43:17 10° SSW 21:48:29 79° WNW 21:52:02 21° NNE
Cosmos 1655 Rocket 3.9 21:42:38 10° N 21:48:52 62° ENE 21:55:01 10° SSE
Cosmos 2151 3.6 21:45:15 10° NNW 21:49:19 56° W 21:53:23 10° S
USA 81 4.2 21:47:34 10° N 21:52:39 46° ENE 21:57:41 10° SSE
Cosmos 1900 4.2 21:51:29 10° NW 21:56:35 80° NE 21:58:28 39° SE
SKYMED 2 3.5 21:56:31 33° NNE 21:58:25 89° WNW 22:02:46 10° SSW
Cosmos 1697 Rocket 2.7 21:54:23 10° S 21:59:51 58° ESE 22:00:55 49° ENE
Gbstr 26 Del rocket 4.3 21:58:40 10° SSW 22:00:57 24° S 22:00:57 24° S
SPOT 1/Viking Rocket 3.9 21:59:20 10° S 22:04:29 65° WSW 22:09:42 10° NNW
ARIANE 5 R/B 4.3 22:00:03 10° SSW 22:04:31 31° W 22:09:04 10° NNW
NOAA 6 3.8 22:00:01 10° SSE 22:05:05 71° ENE 22:10:11 10° N
Cosmos 1726 Rocket 3.5 22:01:24 10° S 22:06:02 76° E 22:06:29 68° NE
Lacrosse 4 Rocket 3.7 22:03:59 10° WNW 22:06:34 16° NW 22:08:13 13° N
Meteor 2-20 4.3 22:02:22 10° S 22:08:25 65° E 22:11:51 27° NNE
Resurs 01 Rocket 4.2 22:13:56 10° N 22:13:56 10° N 22:13:56 10° N
COSMO-SKYMED 1 2.6 22:13:10 63° S 22:13:10 63° S 22:16:38 10° SSW
PSLV R/B 3.5 22:13:58 73° SW 22:14:08 74° WSW 22:18:11 10° NNW
USA 290 4.5 22:13:40 10° NW 22:16:27 26° WSW 22:19:12 10° SSW
USA 238 DEB 4.3 22:12:10 10° S 22:16:10 32° SE 22:16:10 32° SE
USA 238 4.4 22:12:17 10° S 22:16:13 31° SE 22:16:13 31° SE
CENTAUR R/B 3.8 22:13:45 10° W 22:19:23 34° NNW 22:22:46 24° NNE
Cosmos 990 Rocket 3.8 22:15:03 10° SSW 22:20:08 79° ESE 22:20:08 79° ESE
YAOGAN 1 3.1 22:16:54 10° S 22:21:05 57° W 22:25:17 10° NNW
BlueWalker 3 3.7 22:19:30 10° W 22:22:31 24° SW 22:22:52 24° SSW
CZ-4C R/B 3.2 22:16:23 10° NW 22:23:21 71° SW 22:31:58 10° SSE
BREEZE-M DEB (TANK) 4.4 22:17:13 10° SSW 22:23:02 29° SSE 22:23:02 29° SSE
USA 215 3.3 22:23:35 55° ENE 22:24:43 63° NNE 22:31:11 10° NW
Cosmos 1461 3.9 22:22:54 10° SW 22:25:25 39° SW 22:25:25 39° SW
Cosmos 2084 Rocket 4.0 22:23:23 10° NW 22:27:03 54° W 22:27:03 54° W
Meteor 2-20 Rocket 4.4 22:24:52 10° S 22:30:38 66° SE 22:30:38 66° SE
Cosmos 2297 Rocket 3.9 22:27:56 10° NW 22:32:54 32° WSW 22:37:50 10° SSW
USA 281 4.3 22:36:11 29° NNE 22:36:11 29° NNE 22:39:57 10° NNW
ATLAS CENTAUR R/B 3.9 22:41:19 10° W 22:42:47 13° WSW 22:43:06 12° WSW
Cosmos 2219 4.0 22:40:17 10° NNW 22:43:59 40° N 22:43:59 40° N
BREEZE-M DEB (TANK) 4.3 22:42:51 10° WNW 22:47:07 80° SSW 22:48:51 58° ESE
Lacrosse 5 rocket 3.7 22:44:04 10° WNW 22:45:15 16° NW 22:45:15 16° NW
Cosmos 1980 Rocket 3.6 22:55:24 10° SSW 22:57:53 27° SSW 22:57:53 27° SSW
NOSS 3-2 (C) 4.0 23:03:52 10° WSW 23:08:18 46° WNW 23:08:18 46° WNW
Cosmos 2263 Rocket 3.2 23:10:51 10° NW 23:14:49 42° WNW 23:14:49 42° WNW
Cosmos 2227 Rocket 3.9 23:18:53 10° NW 23:23:41 29° WSW 23:25:15 25° SW
